Weather History for Cadillac, MI

Change the Weather History Date:

Friday, October 18, 2013

  Actual Average Record
Temperature  
Mean Temperature 44 °F -  
Max Temperature 58 °F 53 °F 80 °F (1950)
Min Temperature 31 °F 34 °F 10 °F (1952)
Degree Days  
Heating Degree Days 20    
Moisture  
Dew Point 38 °F    
Average Humidity 84    
Maximum Humidity 94    
Minimum Humidity 55    
Precipitation  
Precipitation 0.00 in - - ()
Sea Level Pressure  
Sea Level Pressure 29.79 in    
Wind  
Wind Speed 3 mph (SW)    
Max Wind Speed 16 mph    
Max Gust Speed 25 mph    
Visibility 7 miles    
Events Fog , Rain    
Averages and records for this station are not official NWS values.
T = Trace of Precipitation, MM = Missing Value Source: NWS Daily Summary

Daily Weather History Graph

Daily Weather History Graph

Search for Another Location

Airport:

Trip Planner

Search our weather history database for the weather conditions in past years. The results will help you decide how hot, cold, wet, or windy it might be!

Date:

Astronomy

Oct. 18, 2013 Rise Set
Actual Time 8:00 AM EDT 6:52 PM EDT
Civil Twilight 7:31 AM EDT 7:21 PM EDT
Nautical Twilight 6:57 AM EDT 7:55 PM EDT
Astronomical Twilight 6:24 AM EDT 8:28 PM EDT
Moon 6:40 PM EDT (10/18) 7:35 AM EDT (10/18)
Length of Visible Light 11h 50m
Length of Day
10h 51m
Full, 100% of the Moon is Illuminated
Oct 18
Full
Oct 18
Full
Oct 26
Last Quarter
Nov 3
New
Nov 10
First Quarter

Hourly Weather History & Observations

Time (EDT) Temp. Windchill Dew Point Humidity Pressure Visibility Wind Dir Wind Speed Gust Speed Precip Events Conditions
12:15 AM 36.1 °F - 33.8 °F 91% 29.77 in 1.0 mi Calm Calm - N/A   Mostly Cloudy
12:34 AM 36.1 °F - 34.0 °F 92% 29.77 in 3.0 mi Calm Calm - N/A   Scattered Clouds
12:55 AM 36.1 °F - 34.0 °F 92% 29.77 in 0.8 mi Calm Calm - N/A   Mist
1:15 AM 35.4 °F - 33.3 °F 92% 29.77 in 3.0 mi Calm Calm - N/A   Clear
1:34 AM 33.8 °F - 31.8 °F 92% 29.77 in 1.0 mi Calm Calm - N/A   Mist
1:55 AM 33.6 °F - 32.0 °F 94% 29.78 in 1.0 mi Calm Calm - N/A   Mist
2:15 AM 35.6 °F - 33.6 °F 92% 29.78 in 2.0 mi Calm Calm - N/A   Clear
2:35 AM 33.8 °F - 31.3 °F 90% 29.77 in 4.0 mi Calm Calm - N/A   Clear
2:55 AM 33.8 °F - 31.5 °F 91% 29.77 in 5.0 mi Calm Calm - N/A   Clear
3:14 AM 32.0 °F - 29.7 °F 91% 29.77 in 4.0 mi Calm Calm - N/A   Clear
3:35 AM 31.5 °F - 29.3 °F 92% 29.77 in 5.0 mi Calm Calm - N/A   Clear
3:55 AM 31.5 °F - 29.3 °F 92% 29.77 in 5.0 mi Calm Calm - N/A   Clear
4:14 AM 31.5 °F - 29.3 °F 92% 29.77 in 5.0 mi Calm Calm - N/A   Clear
4:35 AM 31.5 °F - 29.3 °F 92% 29.77 in 7.0 mi Calm Calm - N/A   Scattered Clouds
4:55 AM 31.5 °F - 29.3 °F 92% 29.77 in 5.0 mi Calm Calm - N/A   Scattered Clouds
5:14 AM 31.5 °F - 29.3 °F 92% 29.77 in 5.0 mi Calm Calm - N/A   Scattered Clouds
5:35 AM 31.5 °F - 29.3 °F 92% 29.77 in 7.0 mi Calm Calm - N/A   Clear
5:55 AM 31.5 °F - 29.3 °F 92% 29.77 in 7.0 mi Calm Calm - N/A   Clear
6:14 AM 31.5 °F - 29.3 °F 92% 29.77 in 7.0 mi Calm Calm - N/A   Clear
6:35 AM 31.5 °F - 29.3 °F 92% 29.77 in 7.0 mi Calm Calm - N/A   Clear
6:55 AM 31.5 °F - 29.3 °F 92% 29.77 in 7.0 mi Calm Calm - N/A   Clear
7:14 AM 31.5 °F - 29.3 °F 92% 29.78 in 1.0 mi Calm Calm - N/A   Mist
7:35 AM 31.5 °F - 29.3 °F 92% 29.78 in 0.5 mi Calm Calm - N/A Fog Light Freezing Fog
7:55 AM 32.2 °F - 29.8 °F 91% 29.78 in 0.5 mi Calm Calm - N/A Fog Fog
8:15 AM 31.5 °F - 29.1 °F 91% 29.79 in 4.0 mi Calm Calm - N/A   Scattered Clouds
8:35 AM 31.6 °F - 29.5 °F 92% 29.79 in 4.0 mi Calm Calm - N/A   Scattered Clouds
8:55 AM 32.4 °F - 30.6 °F 93% 29.80 in 5.0 mi Calm Calm - N/A   Scattered Clouds
9:15 AM 33.8 °F - 31.8 °F 92% 29.80 in 5.0 mi Calm Calm - N/A   Clear
9:35 AM 38.8 °F - 36.7 °F 92% 29.80 in 5.0 mi Calm Calm - N/A   Mostly Cloudy
9:54 AM 43.3 °F - 40.5 °F 90% 29.80 in 7.0 mi Calm Calm - N/A   Overcast
10:15 AM 45.1 °F 43.7 °F 41.2 °F 86% 29.80 in 10.0 mi WSW 3.5 mph - N/A   Overcast
10:35 AM 47.5 °F - 43.7 °F 87% 29.81 in 10.0 mi SW 5.8 mph - N/A   Overcast
10:54 AM 49.1 °F - 44.2 °F 83% 29.80 in 10.0 mi SSW 8.1 mph - N/A   Overcast
11:15 AM 49.1 °F - 43.5 °F 81% 29.80 in 10.0 mi SSW 9.2 mph - N/A   Overcast
11:35 AM 51.4 °F - 44.8 °F 78% 29.80 in 10.0 mi SSW 10.4 mph - N/A   Overcast
11:54 AM 52.3 °F - 43.7 °F 72% 29.80 in 10.0 mi SSW 11.5 mph - N/A   Overcast
12:15 PM 52.7 °F - 43.2 °F 70% 29.80 in 10.0 mi SSW 9.2 mph - N/A   Overcast
12:35 PM 52.5 °F - 43.2 °F 70% 29.79 in 10.0 mi SW 10.4 mph - N/A   Overcast
12:54 PM 56.1 °F - 45.1 °F 67% 29.79 in 10.0 mi SSW 8.1 mph - N/A   Mostly Cloudy
1:15 PM 56.5 °F - 43.9 °F 63% 29.78 in 10.0 mi SSW 11.5 mph 16.1 mph N/A   Scattered Clouds
1:35 PM 56.5 °F - 44.4 °F 64% 29.78 in 10.0 mi SSW 10.4 mph 18.4 mph N/A   Scattered Clouds
1:54 PM 56.5 °F - 44.1 °F 63% 29.77 in 10.0 mi SSW 16.1 mph - N/A   Mostly Cloudy
2:15 PM 56.5 °F - 43.5 °F 62% 29.77 in 10.0 mi WSW 12.7 mph - N/A   Overcast
2:35 PM 56.5 °F - 45.3 °F 66% 29.76 in 10.0 mi SSW 12.7 mph 19.6 mph N/A   Overcast
2:54 PM 56.5 °F - 44.4 °F 64% 29.76 in 10.0 mi SW 12.7 mph 17.3 mph N/A   Mostly Cloudy
3:15 PM 58.5 °F - 42.4 °F 55% 29.76 in 10.0 mi WSW 16.1 mph 24.2 mph N/A   Mostly Cloudy
3:35 PM 56.5 °F - 41.2 °F 57% 29.77 in 10.0 mi WSW 15.0 mph 25.3 mph N/A   Mostly Cloudy
3:54 PM 54.7 °F - 41.2 °F 60% 29.77 in 10.0 mi WSW 15.0 mph 20.7 mph N/A   Mostly Cloudy
4:15 PM 54.0 °F - 42.8 °F 66% 29.78 in 10.0 mi WSW 11.5 mph 16.1 mph N/A   Overcast
4:34 PM 54.0 °F - 42.3 °F 65% 29.78 in 10.0 mi WSW 10.4 mph 17.3 mph N/A   Mostly Cloudy
4:55 PM 51.4 °F - 40.6 °F 67% 29.78 in 10.0 mi WSW 5.8 mph - N/A   Mostly Cloudy
5:15 PM 51.4 °F - 40.8 °F 67% 29.78 in 10.0 mi WSW 6.9 mph - N/A   Overcast
5:34 PM 51.4 °F - 42.8 °F 72% 29.79 in 10.0 mi WSW 6.9 mph - N/A Rain Light Rain
5:55 PM 50.0 °F - 44.4 °F 81% 29.79 in 10.0 mi SW 8.1 mph - N/A Rain Light Rain
6:15 PM 49.5 °F - 44.4 °F 83% 29.79 in 10.0 mi SSW 9.2 mph - N/A   Mostly Cloudy
6:34 PM 47.7 °F - 43.7 °F 86% 29.80 in 10.0 mi SSW 6.9 mph - N/A   Scattered Clouds
6:55 PM 48.7 °F - 45.3 °F 88% 29.80 in 10.0 mi SSW 8.1 mph - N/A   Mostly Cloudy
7:14 PM 47.8 °F - 44.8 °F 89% 29.80 in 10.0 mi SW 6.9 mph - N/A   Overcast
7:35 PM 45.5 °F 42.5 °F 42.4 °F 89% 29.80 in 10.0 mi SW 5.8 mph - N/A   Mostly Cloudy
7:55 PM 46.4 °F 42.9 °F 43.7 °F 90% 29.81 in 10.0 mi SW 6.9 mph - N/A   Overcast
8:14 PM 45.1 °F 40.8 °F 42.3 °F 90% 29.81 in 10.0 mi SW 8.1 mph - N/A   Mostly Cloudy
8:35 PM 44.6 °F 40.7 °F 41.9 °F 90% 29.81 in 10.0 mi SW 6.9 mph - N/A   Scattered Clouds
8:55 PM 45.1 °F 42.0 °F 42.8 °F 91% 29.81 in 10.0 mi SSW 5.8 mph - N/A   Mostly Cloudy
9:14 PM 45.1 °F 40.8 °F 42.4 °F 90% 29.82 in 10.0 mi SW 8.1 mph - N/A   Overcast
9:35 PM 45.3 °F 41.6 °F 42.4 °F 90% 29.82 in 7.0 mi WSW 6.9 mph - N/A Rain Rain
9:55 PM 45.1 °F 42.8 °F 42.3 °F 90% 29.82 in 10.0 mi WSW 4.6 mph - N/A Rain Rain
10:14 PM 45.1 °F 41.4 °F 42.3 °F 90% 29.82 in 10.0 mi WSW 6.9 mph - N/A Rain Light Rain
10:35 PM 44.8 °F 41.6 °F 42.1 °F 90% 29.82 in 7.0 mi WSW 5.8 mph - N/A Rain Rain
10:55 PM 44.6 °F 41.4 °F 41.9 °F 90% 29.82 in 7.0 mi WSW 5.8 mph - N/A Rain Rain
11:14 PM 44.6 °F 40.7 °F 41.5 °F 89% 29.82 in 7.0 mi WSW 6.9 mph - N/A Rain Light Rain
11:35 PM 43.9 °F 40.5 °F 41.0 °F 90% 29.81 in 7.0 mi WSW 5.8 mph - N/A Rain Light Rain
11:55 PM 43.9 °F 39.9 °F 41.0 °F 90% 29.81 in 10.0 mi WSW 6.9 mph - N/A   Overcast